Home > Weather > Osøyro > Past weeks

Flag for Norway Weather for the Past 2 Weeks in Osøyro, Norway

Now
39 °F

Partly cloudy.


Feels Like: 30 °F
Forecast: 41 / 44 °F
Wind: 16 mph from Southeast

Location: Bergen / Flesland

Current Time: Feb 7, 2016 at 12:47:09 AM

Latest Report: Feb 6, 2016 at 11:50 PM


Visibility: 6 mi

Pressure: 29.06 "Hg

Humidity: 93%

Dew point: 37 °F

Location of OsøyroLocation

Historic Weather in Osøyro — Graph

°F

Osøyro Temperature Yesterday

Maximum temperature yesterday: 45 °F (at 12:50 AM)
Minimum temperature yesterday: 37 °F (at 8:50 PM)
Average temperature yesterday: 41 °F

High & Low Weather Summary for the Past Weeks

 TemperatureHumidityPressure
High52 °F (Jan 25, 1:50 PM)100% (Jan 23, 12:50 PM)30.09 "Hg (Jan 23, 12:50 PM)
Low30 °F (Feb 1, 2:50 AM)57% (Jan 29, 3:20 PM)28.68 "Hg (Feb 2, 12:50 PM)
Average40 °F89%29.43 "Hg
* Reported Jan 22 11:50 PM — Feb 6 11:50 PM, Osøyro, Weather by CustomWeather, © 2016

Note: Actual official high and low records may vary slightly from our data, if they occured in-between our weather recording intervals... More about our weather records

Advertising

Osøyro Weather History for the Previous 24 Hours

 ConditionsComfort  
Time TempWeatherWind HumidityBarometerVisibility
11:50 PM
Sat, Feb 6
39 °FPartly cloudy.16 mph93%29.06 "Hg6 mi
11:20 PM39 °FLight rain. Passing clouds.12 mph87%29.09 "HgN/A
10:50 PM37 °FLight rain. Partly cloudy.12 mph93%29.09 "HgN/A
9:50 PM37 °FLight rain. Passing clouds.7 mph87%29.15 "HgN/A
9:20 PM37 °FLight rain. Partly cloudy.7 mph87%29.18 "HgN/A
8:50 PM37 °FLight rain. Partly cloudy.8 mph87%29.21 "HgN/A
8:20 PM39 °FLight rain. Partly cloudy.10 mph81%29.24 "HgN/A
7:50 PM39 °FLight rain. Partly cloudy.10 mph81%29.27 "HgN/A
7:20 PM39 °FPartly cloudy.8 mph81%29.30 "HgN/A
6:50 PM39 °FLight rain. Partly cloudy.9 mph81%29.33 "HgN/A
6:20 PM39 °FLight rain. Partly cloudy.10 mph81%29.33 "HgN/A
5:50 PM39 °FScattered showers. Partly cloudy.12 mph87%29.36 "HgN/A
5:20 PM39 °FLight rain. Passing clouds.13 mph87%29.36 "HgN/A
4:50 PM39 °FScattered showers. Broken clouds.9 mph87%29.39 "HgN/A
4:20 PM41 °FBroken clouds.12 mph81%29.39 "HgN/A
3:50 PM41 °FBroken clouds.13 mph81%29.39 "HgN/A
3:20 PM41 °FBroken clouds.13 mph81%29.42 "HgN/A
2:50 PM41 °FBroken clouds.12 mph81%29.42 "HgN/A
2:20 PM41 °FBroken clouds.10 mph81%29.42 "HgN/A
1:50 PM41 °FBroken clouds.12 mph87%29.45 "HgN/A
1:20 PM41 °FBroken clouds.10 mph87%29.45 "HgN/A
12:50 PM41 °FBroken clouds.13 mph81%29.45 "HgN/A
12:20 PM43 °FBroken clouds.10 mph76%29.45 "HgN/A
11:50 AM41 °FScattered showers. Scattered clouds.9 mph81%29.45 "HgN/A
11:20 AM39 °FScattered showers. Scattered clouds.7 mph93%29.45 "HgN/A
10:50 AM39 °FScattered showers. Scattered clouds.5 mph87%29.45 "HgN/A
10:20 AM39 °FScattered clouds.6 mph87%29.42 "HgN/A
9:50 AM39 °FScattered clouds.6 mph87%29.42 "HgN/A
9:20 AM39 °FScattered clouds.9 mph93%29.39 "HgN/A
8:50 AM39 °FScattered showers. Broken clouds.5 mph93%29.39 "HgN/A
8:20 AM39 °FPartly cloudy.5 mph93%29.36 "HgN/A
7:50 AM39 °FLight rain. Partly cloudy.8 mph93%29.33 "HgN/A
7:20 AM39 °FLight rain. Partly cloudy.8 mph93%29.33 "HgN/A
6:50 AM41 °FLight rain. Partly cloudy.10 mph93%29.30 "HgN/A
6:20 AM45 °FLight rain. Partly cloudy.21 mph93%29.27 "HgN/A
5:50 AM45 °FRain. Partly cloudy.23 mph87%29.24 "HgN/A
4:50 AM45 °FLight rain. Partly cloudy.25 mph93%29.27 "HgN/A
3:50 AM45 °FRain. Partly cloudy.24 mph93%29.30 "HgN/A
2:50 AM45 °FLight rain. Passing clouds.25 mph93%29.33 "HgN/A
1:50 AM45 °FPartly cloudy.25 mph93%29.39 "Hg6 mi
1:20 AM45 °FPassing clouds.25 mph93%29.39 "Hg4 mi
12:50 AM45 °FRain. Partly cloudy.26 mph93%29.39 "Hg4 mi
12:20 AM43 °FPassing clouds.23 mph100%29.42 "HgN/A
Weather by CustomWeather, © 2016

See weather overviewHow to use our weather pages